Charlottesville, VA

11:13 PM EDT on October 20, 2019 (GMT -0400)
Charlottesville-Albemarle

Weather History for KCHO - August, 2019

Change the Weather History Date:

Thursday, August 15, 2019

  Actual Average Record
Temperature  
Mean Temperature 79 °F 74 °F  
Max Temperature 88 °F 85 °F 101 °F (1988)
Min Temperature 69 °F 64 °F 50 °F (2013)
Degree Days  
Heating Degree Days 0 0  
Month to date heating degree days 0 0  
Since 1 June heating degree days 0 12  
Since 1 July heating degree days 0 1  
Cooling Degree Days 14 9  
Month to date cooling degree days 204 147  
Year to date cooling degree days 1272 777  
Since 1 June cooling degree days 986 691  
Growing Degree Days 28 (Base 50)    
Moisture  
Dew Point 70 °F    
Average Humidity 73    
Maximum Humidity 90    
Minimum Humidity 55    
Precipitation  
Precipitation 0.71 in 0.12 in 2.15 in (1975)
Month to date precipitation 1.51 2.02  
Year to date precipitation 26.81 26.54  
Sea Level Pressure  
Sea Level Pressure 29.95 in    
Wind  
Wind Speed 5 mph (ENE)    
Max Wind Speed 16 mph    
Max Gust Speed 20 mph    
Visibility 9 miles    
Events Rain , Thunderstorm    
T = Trace of Precipitation, MM = Missing Value Source: NWS Daily Summary

Daily Weather History Graph

Daily Weather History Graph

Search for Another Location

Airport or City:

Astronomy

Aug. 15, 2019 Rise Set
Actual Time 6:28 AM EDT 8:07 PM EDT
Civil Twilight 6:00 AM EDT 8:35 PM EDT
Nautical Twilight 5:26 AM EDT 9:09 PM EDT
Astronomical Twilight 4:50 AM EDT 9:45 PM EDT
Moon 8:34 PM EDT (8/15) 6:21 AM EDT (8/15)
Length of Visible Light 14h 35m
Length of Day
13h 38m
Full, 100% of the Moon is Illuminated
Aug 15
Full
Aug 23
Last Quarter
Aug 30
New
Sep 5
First Quarter
Sep 14
Full

Hourly Weather History & Observations

Time (EDT) Temp. Heat Index Dew Point Humidity Pressure Visibility Wind Dir Wind Speed Gust Speed Precip Events Conditions
12:53 AM 77.0 °F - 72.0 °F 84% 29.91 in 10.0 mi West 3.5 mph - N/A   Mostly Cloudy
1:53 AM 77.0 °F - 71.1 °F 82% 29.91 in 10.0 mi Calm Calm - N/A   Mostly Cloudy
2:53 AM 75.9 °F - 72.0 °F 87% 29.90 in 9.0 mi Calm Calm - N/A   Partly Cloudy
3:53 AM 75.0 °F - 71.1 °F 87% 29.89 in 8.0 mi NNE 3.5 mph - N/A   Mostly Cloudy
4:53 AM 73.9 °F - 66.0 °F 76% 29.90 in 10.0 mi NE 8.1 mph - N/A   Clear
5:53 AM 73.0 °F - 64.9 °F 76% 29.91 in 10.0 mi Calm Calm - N/A   Clear
6:53 AM 71.1 °F - 64.9 °F 81% 29.93 in 10.0 mi Calm Calm - N/A   Mostly Cloudy
7:53 AM 73.9 °F - 66.9 °F 79% 29.94 in 10.0 mi East 3.5 mph - N/A   Partly Cloudy
8:48 AM 77.0 °F - 66.2 °F 69% 29.98 in 10.0 mi NNE 5.8 mph - N/A   Mostly Cloudy
8:53 AM 77.0 °F - 68.0 °F 74% 29.96 in 10.0 mi Variable 4.6 mph - N/A   Mostly Cloudy
9:53 AM 79.0 °F - 70.0 °F 74% 29.98 in 10.0 mi NE 4.6 mph - N/A   Overcast
10:16 AM 78.1 °F - 71.1 °F 79% 30.00 in 5.0 mi North 4.6 mph - 0.02 in Rain Rain
10:32 AM 78.1 °F - 72.0 °F 81% 30.00 in 5.0 mi North 5.8 mph - 0.03 in Rain Light Rain
10:53 AM 80.1 °F 83.8 °F 72.0 °F 76% 29.97 in 9.0 mi NE 6.9 mph - 0.03 in   Scattered Clouds
11:16 AM 80.1 °F 83.8 °F 72.0 °F 76% 30.00 in 8.0 mi North 3.5 mph - N/A   Mostly Cloudy
11:53 AM 82.0 °F 87.4 °F 73.0 °F 74% 29.97 in 9.0 mi East 5.8 mph - N/A   Mostly Cloudy
12:39 PM 84.0 °F 89.6 °F 72.0 °F 67% 29.98 in 9.0 mi Variable 3.5 mph - N/A   Partly Cloudy
12:53 PM 84.0 °F 89.6 °F 72.0 °F 67% 29.96 in 10.0 mi SE 5.8 mph - N/A   Mostly Cloudy
1:00 PM 84.9 °F 90.1 °F 71.1 °F 63% 29.98 in 10.0 mi ESE 6.9 mph - N/A   Clear
1:53 PM 86.0 °F 91.5 °F 71.1 °F 61% 29.94 in 10.0 mi South 4.6 mph - N/A   Scattered Clouds
2:53 PM 87.1 °F 92.0 °F 70.0 °F 57% 29.91 in 10.0 mi North - - N/A   Mostly Cloudy
3:53 PM 88.0 °F 93.8 °F 71.1 °F 57% 29.89 in 10.0 mi ENE 5.8 mph - N/A   Scattered Clouds
4:53 PM 88.0 °F 94.7 °F 72.0 °F 59% 29.90 in 10.0 mi East 8.1 mph - N/A   Partly Cloudy
5:53 PM 87.1 °F 92.0 °F 70.0 °F 57% 29.89 in 10.0 mi ESE 6.9 mph - N/A   Mostly Cloudy
6:44 PM 84.0 °F 89.0 °F 71.1 °F 65% 29.92 in 10.0 mi SE 11.5 mph - 0.00 in Rain , Thunderstorm Light Rain
6:53 PM 82.9 °F 87.5 °F 71.1 °F 67% 29.89 in 10.0 mi SSE 10.4 mph - 0.00 in Rain , Thunderstorm Light Rain
7:20 PM 82.0 °F 86.3 °F 71.1 °F 69% 29.92 in 10.0 mi SSE 10.4 mph - 0.00 in Thunderstorm Thunderstorm
7:35 PM 82.0 °F 86.3 °F 71.1 °F 69% 29.92 in 10.0 mi ESE 8.1 mph - 0.00 in   Partly Cloudy
7:42 PM 82.0 °F 86.3 °F 71.1 °F 69% 29.93 in 10.0 mi ESE 5.8 mph - 0.00 in Thunderstorm Partly Cloudy
7:53 PM 82.0 °F 86.3 °F 71.1 °F 69% 29.91 in 10.0 mi ESE 4.6 mph - 0.00 in Thunderstorm Mostly Cloudy
8:01 PM 81.0 °F 84.9 °F 71.1 °F 72% 29.93 in 10.0 mi SSE 9.2 mph - N/A Thunderstorm Mostly Cloudy
8:14 PM 81.0 °F 84.9 °F 71.1 °F 72% 29.95 in 10.0 mi ENE 4.6 mph - N/A Thunderstorm Overcast
8:23 PM 80.1 °F 83.6 °F 71.1 °F 74% 29.94 in 10.0 mi NNE 9.2 mph - 0.00 in Rain , Thunderstorm Light Thunderstorms and Rain
8:53 PM 73.0 °F - 69.1 °F 87% 29.97 in 4.0 mi North 4.6 mph - 0.25 in Rain , Thunderstorm Heavy Thunderstorms and Rain
8:57 PM 72.0 °F - 68.0 °F 87% 29.98 in 2.0 mi NNE 15.0 mph - 0.13 in Rain , Thunderstorm Heavy Thunderstorms and Rain
9:30 PM 71.1 °F - 66.9 °F 87% 30.00 in 2.0 mi ENE 10.4 mph - 0.40 in Thunderstorm Mostly Cloudy
9:32 PM 71.1 °F - 66.0 °F 84% 30.00 in 10.0 mi ENE 9.2 mph - 0.40 in Thunderstorm Mostly Cloudy
9:53 PM 70.0 °F - 66.0 °F 87% 29.99 in 10.0 mi ESE 6.9 mph - 0.40 in   Overcast
10:53 PM 69.1 °F - 64.9 °F 87% 29.99 in 10.0 mi WNW 4.6 mph - 0.03 in   Partly Cloudy
11:53 PM 69.1 °F - 66.0 °F 90% 29.99 in - NNE 3.5 mph - N/A   Partly Cloudy